TimeCST,TemperatureF,Dew PointF,Humidity,Sea Level PressureIn,VisibilityMPH,Wind Direction,Wind SpeedMPH,Gust SpeedMPH,PrecipitationIn,Events,Conditions,WindDirDegrees,DateUTC
12:52 AM,33.1,23.0,66,30.34,10.0,SW,3.5,-,N/A,,Mostly Cloudy,220,2013-03-02 06:52:00
1:52 AM,35.1,26.1,70,30.35,10.0,NW,4.6,-,N/A,,Clear,320,2013-03-02 07:52:00
2:52 AM,33.1,26.1,75,30.35,10.0,NNW,8.1,-,N/A,,Clear,330,2013-03-02 08:52:00
3:52 AM,33.1,26.1,75,30.37,10.0,NW,6.9,-,N/A,,Clear,310,2013-03-02 09:52:00
4:52 AM,32.0,25.0,75,30.36,10.0,North,8.1,-,N/A,,Clear,350,2013-03-02 10:52:00
5:52 AM,30.9,26.1,82,30.39,10.0,NW,8.1,-,N/A,,Clear,320,2013-03-02 11:52:00
6:52 AM,30.9,25.0,79,30.40,10.0,NNW,4.6,-,N/A,,Clear,330,2013-03-02 12:52:00
7:52 AM,32.0,27.0,82,30.42,10.0,WNW,3.5,-,N/A,,Clear,300,2013-03-02 13:52:00
8:52 AM,37.9,28.0,68,30.44,10.0,NNW,5.8,-,N/A,,Clear,330,2013-03-02 14:52:00
9:52 AM,42.1,28.0,58,30.45,10.0,NW,6.9,-,N/A,,Clear,320,2013-03-02 15:52:00
10:52 AM,46.9,28.0,48,30.44,10.0,WNW,6.9,-,N/A,,Clear,300,2013-03-02 16:52:00
11:52 AM,50.0,27.0,41,30.41,10.0,North,5.8,-,N/A,,Clear,360,2013-03-02 17:52:00
12:52 PM,54.0,27.0,35,30.38,10.0,WNW,6.9,-,N/A,,Clear,300,2013-03-02 18:52:00
1:52 PM,57.0,27.0,32,30.32,10.0,WNW,9.2,-,N/A,,Clear,290,2013-03-02 19:52:00
2:52 PM,61.0,28.0,29,30.28,10.0,WNW,10.4,-,N/A,,Clear,290,2013-03-02 20:52:00
3:52 PM,63.0,28.0,27,30.25,10.0,West,8.1,-,N/A,,Clear,280,2013-03-02 21:52:00
5:52 PM,64.9,28.0,25,30.22,10.0,NW,6.9,-,N/A,,Clear,310,2013-03-02 23:52:00
6:52 PM,61.0,28.0,29,30.22,10.0,Calm,Calm,-,N/A,,Clear,0,2013-03-03 00:52:00
7:52 PM,53.1,28.0,38,30.22,10.0,SSE,9.2,-,N/A,,Clear,160,2013-03-03 01:52:00
8:52 PM,48.9,28.9,46,30.21,10.0,SSE,9.2,-,N/A,,Clear,160,2013-03-03 02:52:00
9:52 PM,46.0,28.9,51,30.22,10.0,South,8.1,-,N/A,,Clear,170,2013-03-03 03:52:00